When you browse on this site, cookies collect data to enhance your experience and personalize the content and advertising you see.
Visit our Privacy Policy to learn more. By continuing to use the site, you agree to this use of cookies and data.
  • In Hungary
  • List of Countries
  • For 7 days
  • Water Temperature
  • Weather Map
  • News
  • Weather Widgets
  • user-avatar
    Login

    Hourly Weather Lypnyky

    Today, 30 March, Monday

    Time Temperature Precipitation Wind Pressure Humidity
    00:00 +5°C° 0 mm 4 mps 729 mmHg 94%
    01:00 +5°C° 0 mm 4 mps 729 mmHg 95%
    02:00 +4°C° 0 mm 4 mps 729 mmHg 96%
    03:00 +4°C° 0 mm 4 mps 730 mmHg 97%
    04:00 +4°C° 0 mm 4 mps 729 mmHg 98%
    05:00 +5°C° 0 mm 4 mps 730 mmHg 98%
    06:00 +5°C° 0 mm 5 mps 730 mmHg 99%
    07:00 +2°C° 0 mm 7 mps 730 mmHg 97%
    08:00 0°C° 0 mm 8 mps 731 mmHg 96%
    09:00 +1°C° 0 mm 8 mps 731 mmHg 95%
    10:00 +1°C° 0 mm 8 mps 732 mmHg 94%
    11:00 +1°C° 0 mm 8 mps 732 mmHg 94%
    12:00 +2°C° 0 mm 7 mps 733 mmHg 93%
    13:00 +1°C° 0.4 mm 8 mps 733 mmHg 91%
    14:00 +2°C° 0.1 mm 8 mps 733 mmHg 96%
    15:00 +1°C° 0.1 mm 8 mps 734 mmHg 90%
    16:00 +2°C° 0 mm 7 mps 733 mmHg 88%
    17:00 +1°C° 0.1 mm 5 mps 734 mmHg 96%
    18:00 -1°C° 0.4 mm 6 mps 734 mmHg 94%
    19:00 0°C° 0 mm 5 mps 734 mmHg 92%
    20:00 -1°C° 0.1 mm 5 mps 735 mmHg 97%
    21:00 -2°C° 0.6 mm 5 mps 736 mmHg 93%
    22:00 -2°C° 0 mm 5 mps 736 mmHg 91%
    23:00 -4°C° 0 mm 5 mps 736 mmHg 94%

    Tomorrow, 31 March, Tuesday

    Time Temperature Precipitation Wind Pressure Humidity
    00:00 -4°C° 0 mm 5 mps 736 mmHg 92%
    01:00 -4°C° 0 mm 4 mps 736 mmHg 92%
    02:00 -4°C° 0 mm 4 mps 737 mmHg 92%
    03:00 -4°C° 0 mm 4 mps 737 mmHg 94%
    04:00 -4°C° 0 mm 3 mps 737 mmHg 94%
    05:00 -4°C° 0 mm 3 mps 737 mmHg 93%
    06:00 -4°C° 0 mm 3 mps 737 mmHg 93%
    07:00 -2°C° 0 mm 3 mps 738 mmHg 92%
    08:00 -2°C° 0 mm 3 mps 738 mmHg 85%
    09:00 -2°C° 0 mm 4 mps 738 mmHg 79%
    10:00 0°C° 0 mm 3 mps 739 mmHg 80%
    11:00 +1°C° 0 mm 3 mps 739 mmHg 83%
    12:00 +2°C° 0 mm 3 mps 739 mmHg 80%
    13:00 +2°C° 0.1 mm 3 mps 739 mmHg 79%
    14:00 +3°C° 0.2 mm 3 mps 739 mmHg 74%
    15:00 +3°C° 0 mm 3 mps 739 mmHg 75%
    16:00 +3°C° 0.1 mm 4 mps 739 mmHg 85%
    17:00 +2°C° 0.8 mm 2 mps 739 mmHg 93%
    18:00 +3°C° 0.7 mm 1 mps 739 mmHg 91%
    19:00 +2°C° 0 mm 2 mps 739 mmHg 94%
    20:00 +2°C° 0.2 mm 1 mps 740 mmHg 94%
    21:00 +1°C° 0 mm 0 mps 740 mmHg 92%
    22:00 0°C° 0 mm 0 mps 740 mmHg 93%
    23:00 0°C° 0 mm 0 mps 740 mmHg 93%

    Day after tomorrow, 1 April, Wednesday

    Time Temperature Precipitation Wind Pressure Humidity
    00:00 0°C° 0 mm 0 mps 740 mmHg 95%
    01:00 0°C° 0 mm 0 mps 740 mmHg 95%
    02:00 +1°C° 0 mm 1 mps 740 mmHg 94%
    03:00 +1°C° 0 mm 1 mps 740 mmHg 93%
    04:00 0°C° 0 mm 1 mps 739 mmHg 94%
    05:00 0°C° 0 mm 1 mps 739 mmHg 97%
    06:00 -2°C° 0 mm 2 mps 739 mmHg 98%
    07:00 -2°C° 0 mm 2 mps 739 mmHg 97%
    08:00 0°C° 0 mm 3 mps 739 mmHg 87%
    09:00 +1°C° 0 mm 3 mps 739 mmHg 78%
    10:00 +3°C° 0 mm 3 mps 739 mmHg 66%
    11:00 +5°C° 0 mm 2 mps 739 mmHg 56%
    12:00 +6°C° 0 mm 2 mps 739 mmHg 51%
    13:00 +8°C° 0 mm 1 mps 739 mmHg 50%
    14:00 +8°C° 0 mm 1 mps 738 mmHg 51%
    15:00 +9°C° 0 mm 1 mps 738 mmHg 52%
    16:00 +9°C° 0 mm 1 mps 737 mmHg 54%
    17:00 +9°C° 0 mm 1 mps 736 mmHg 56%
    18:00 +8°C° 0 mm 1 mps 736 mmHg 64%
    19:00 +5°C° 0 mm 3 mps 736 mmHg 82%
    20:00 +6°C° 0 mm 1 mps 736 mmHg 94%
    21:00 +4°C° 0 mm 2 mps 736 mmHg 99%
    22:00 +3°C° 0.5 mm 0 mps 736 mmHg 99%
    23:00 +4°C° 0 mm 1 mps 736 mmHg 99%

    2 April, Thursday

    Time Temperature Precipitation Wind Pressure Humidity
    00:00 +4°C° 0 mm 1 mps 736 mmHg 96%
    01:00 +2°C° 0 mm 2 mps 735 mmHg 92%
    02:00 +2°C° 0 mm 2 mps 735 mmHg 76%
    03:00 +2°C° 0 mm 2 mps 735 mmHg 66%
    04:00 +3°C° 0 mm 1 mps 734 mmHg 64%
    05:00 +3°C° 0 mm 1 mps 734 mmHg 64%
    06:00 +3°C° 0 mm 1 mps 734 mmHg 64%
    07:00 +3°C° 0 mm 1 mps 734 mmHg 65%
    08:00 +3°C° 0 mm 0 mps 734 mmHg 73%
    09:00 +4°C° 0 mm 0 mps 734 mmHg 71%
    10:00 +6°C° 0 mm 0 mps 735 mmHg 73%
    11:00 +7°C° 0 mm 0 mps 734 mmHg 76%
    12:00 +9°C° 0 mm 1 mps 734 mmHg 77%
    13:00 +10°C° 0 mm 1 mps 734 mmHg 71%
    14:00 +9°C° 0 mm 2 mps 734 mmHg 69%
    15:00 +10°C° 0 mm 3 mps 734 mmHg 64%
    16:00 +10°C° 0 mm 4 mps 733 mmHg 63%
    17:00 +8°C° 0 mm 4 mps 733 mmHg 66%
    18:00 +7°C° 0 mm 4 mps 732 mmHg 72%
    19:00 +7°C° 0 mm 2 mps 732 mmHg 78%
    20:00 +6°C° 0 mm 2 mps 732 mmHg 74%
    21:00 +7°C° 0 mm 1 mps 732 mmHg 68%
    22:00 +6°C° 0 mm 1 mps 732 mmHg 69%
    23:00 +5°C° 0 mm 1 mps 732 mmHg 73%

    3 April, Friday

    Time Temperature Precipitation Wind Pressure Humidity
    00:00 +5°C° 0 mm 1 mps 732 mmHg 74%
    01:00 +5°C° 0 mm 1 mps 732 mmHg 73%
    02:00 +3°C° 0 mm 2 mps 732 mmHg 74%
    03:00 +3°C° 0 mm 2 mps 731 mmHg 77%
    04:00 +2°C° 0 mm 2 mps 731 mmHg 79%
    05:00 +2°C° 0 mm 2 mps 731 mmHg 81%
    06:00 +3°C° 0 mm 2 mps 730 mmHg 80%
    07:00 +4°C° 0 mm 1 mps 731 mmHg 80%
    08:00 +5°C° 0 mm 1 mps 731 mmHg 86%
    09:00 +6°C° 0 mm 2 mps 731 mmHg 90%
    10:00 +9°C° 0 mm 1 mps 731 mmHg 82%
    11:00 +11°C° 0 mm 1 mps 731 mmHg 77%
    12:00 +12°C° 0 mm 2 mps 731 mmHg 76%
    13:00 +12°C° 0 mm 2 mps 730 mmHg 72%
    14:00 +11°C° 0.2 mm 3 mps 730 mmHg 76%
    15:00 +12°C° 0 mm 3 mps 730 mmHg 70%
    16:00 +10°C° 0 mm 5 mps 729 mmHg 74%
    17:00 +10°C° 0 mm 5 mps 729 mmHg 72%
    18:00 +11°C° 0 mm 4 mps 729 mmHg 77%
    19:00 +9°C° 0 mm 3 mps 729 mmHg 83%
    20:00 +8°C° 0 mm 3 mps 729 mmHg 86%
    21:00 +7°C° 0 mm 3 mps 730 mmHg 82%
    22:00 +7°C° 0 mm 2 mps 730 mmHg 82%
    23:00 +6°C° 0 mm 2 mps 730 mmHg 83%

    4 April, Saturday

    Time Temperature Precipitation Wind Pressure Humidity
    00:00 +5°C° 0 mm 3 mps 731 mmHg 87%
    01:00 +5°C° 0 mm 5 mps 731 mmHg 92%
    02:00 +4°C° 0 mm 6 mps 731 mmHg 94%
    03:00 +3°C° 0.1 mm 5 mps 732 mmHg 92%
    04:00 +4°C° 0 mm 4 mps 732 mmHg 89%
    05:00 +3°C° 0 mm 4 mps 733 mmHg 89%
    06:00 +3°C° 0 mm 3 mps 733 mmHg 89%
    07:00 +3°C° 0 mm 3 mps 734 mmHg 90%
    08:00 +2°C° 0 mm 6 mps 735 mmHg 88%
    09:00 +2°C° 0 mm 6 mps 735 mmHg 89%
    10:00 +3°C° 0 mm 6 mps 736 mmHg 86%
    11:00 +3°C° 0 mm 6 mps 736 mmHg 84%
    12:00 +4°C° 0 mm 6 mps 737 mmHg 84%
    13:00 +5°C° 0 mm 6 mps 737 mmHg 76%
    14:00 +5°C° 0 mm 7 mps 737 mmHg 82%
    15:00 +6°C° 0 mm 5 mps 737 mmHg 78%
    16:00 +6°C° 0 mm 4 mps 737 mmHg 80%
    17:00 +5°C° 0 mm 5 mps 738 mmHg 82%
    18:00 +4°C° 0.1 mm 4 mps 738 mmHg 90%
    19:00 +2°C° 0 mm 5 mps 739 mmHg 89%
    20:00 +1°C° 0 mm 4 mps 740 mmHg 91%
    21:00 +1°C° 0 mm 4 mps 740 mmHg 95%
    22:00 0°C° 0 mm 4 mps 741 mmHg 97%
    23:00 0°C° 0 mm 4 mps 742 mmHg 98%
    Show more